Location: Eindhoven
(51.4416°N, 5.4697°E)
Time: 23:19:48
(UTC+01:00)

Transit 2A - Visible Passes

Search period start: 21 November 2019 00:00
Search period end: 01 December 2019 00:00
Orbit: 601 x 957 km, 66.7° (Epoch: 21 November)

Date Brightness Start Highest point End Pass type
(mag) Time Alt. Az. Time Alt. Az. Time Alt. Az.
21 Nov 7.0 18:45:44 10° NNW 18:48:39 22° NNE 18:48:39 22° NNE visible
21 Nov 8.3 20:28:30 10° NW 20:29:08 14° NW 20:29:08 14° NW visible
22 Nov 7.1 18:11:44 10° NNW 18:14:49 18° NNE 18:15:34 18° NE visible
22 Nov 7.5 19:54:23 10° NW 19:56:03 23° NNW 19:56:03 23° NNW visible
23 Nov 7.3 17:37:42 10° NNW 17:40:24 16° NNE 17:42:32 12° NE visible
23 Nov 6.6 19:20:18 10° NNW 19:23:02 34° N 19:23:02 34° N visible
24 Nov 6.2 18:46:15 10° NNW 18:50:05 37° NNE 18:50:05 37° NNE visible
24 Nov 8.2 20:29:25 10° NW 20:30:35 17° WNW 20:30:35 17° WNW visible
25 Nov 6.5 18:12:13 10° NNW 18:16:03 29° NE 18:17:14 25° ENE visible
25 Nov 7.1 19:55:10 10° NW 19:57:45 33° WNW 19:57:45 33° WNW visible
26 Nov 6.8 17:38:12 10° NNW 17:41:44 23° NNE 17:44:31 13° E visible
26 Nov 5.6 19:20:59 10° NW 19:25:03 74° WNW 19:25:03 74° WNW visible
27 Nov 5.4 18:46:51 10° NW 18:51:13 74° NE 18:52:32 44° SE visible
27 Nov 8.2 20:30:58 10° WNW 20:33:04 17° W 20:33:04 17° W visible
28 Nov 5.6 18:12:46 10° NNW 18:17:03 53° NE 18:20:18 17° ESE visible
28 Nov 7.6 19:56:21 10° WNW 19:59:54 25° WSW 20:00:53 23° SW visible
29 Nov 6.0 17:38:43 10° NNW 17:42:50 39° NE 17:47:01 10° ESE visible
29 Nov 7.1 19:21:56 10° NW 19:25:55 35° WSW 19:29:11 15° S visible
30 Nov 6.4 17:04:41 10° NNW 17:08:34 30° NE 17:12:31 10° E visible
30 Nov 6.4 18:47:39 10° NW 18:51:53 51° WSW 18:56:17 10° SSE visible
